QPF
0.00 0.00 0.00 0.00 0.00 0.00 0.00 0.00 0.00 0.00 0.00 0.00 0.00 0.00 0.00 0.00 0.00 0.00 0.00 0.00 0.00 0.00 0.00 0.00 0.00 0.00 0.00 0.00 0.00 0.00 0.00 0.00 0.00 0.00 0.00 0.00 0.00 0.00 0.00 0.00 0.00 0.00 0.00
0.00 0.00 0.00 0.00 0.00 0.00 0.00 0.00 0.00 0.00 0.00 0.00 0.00 0.00 0.00 0.00 0.00 0.00 0.00 0.00 0.00 0.00 0.00 0.00 0.00 0.00 0.00 0.00 0.00 0.00 0.00 0.00 0.00 0.00 0.00 0.00 0.00 0.00 0.01 0.01 0.01 0.00 0.00
0.00 0.00 0.00 0.00 0.00 0.00 0.00 0.00 0.00 0.00 0.00 0.00 0.00 0.00 0.00 0.00 0.00 0.00 0.00 0.00 0.00 0.00 0.00 0.00 0.00 0.00 0.00 0.00 0.00 0.00 0.00 0.00 0.00 0.00 0.00 0.00 0.01 0.03 0.05 0.02 0.01 0.00 0.00
0.00 0.00 0.00 0.00 0.00 0.00 0.00 0.00 0.00 0.00 0.00 0.00 0.00 0.00 0.00 0.00 0.00 0.00 0.00 0.00 0.00 0.00 0.00 0.00 0.00 0.00 0.00 0.00 0.00 0.00 0.00 0.00 0.00 0.00 0.00 0.00 0.00 0.01 0.01 0.02 0.00 0.00 0.00
0.00 0.00 0.00 0.00 0.00 0.00 0.00 0.00 0.00 0.00 0.00 0.00 0.00 0.00 0.00 0.00 0.00 0.00 0.00 0.00 0.00 0.00 0.00 0.00 0.00 0.00 0.00 0.00 0.00 0.00 0.00 0.00 0.00 0.00 0.00 0.00 0.00 0.00 0.00 0.03 0.00 0.00 0.00
0.00 0.00 0.00 0.00 0.00 0.00 0.00 0.00 0.00 0.00 0.00 0.00 0.00 0.00 0.00 0.00 0.00 0.00 0.00 0.00 0.00 0.00 0.00 0.00 0.00 0.00 0.00 0.00 0.00 0.00 0.00 0.00 0.00 0.00 0.00 0.00 0.00 0.00 0.00 0.00 0.00 0.00 0.00
0.00 0.00 0.00 0.00 0.00 0.00 0.00 0.00 0.00 0.00 0.00 0.00 0.00 0.00 0.00 0.00 0.00 0.00 0.00 0.00 0.00 0.00 0.00 0.00 0.00 0.00 0.00 0.00 0.00 0.00 0.00 0.00 0.00 0.00 0.00 0.00 0.00 0.00 0.00 0.00 0.00 0.00 0.00
0.00 0.00 0.00 0.00 0.00 0.00 0.00 0.00 0.00 0.00 0.00 0.00 0.00 0.00 0.00 0.00 0.00 0.00 0.00 0.00 0.00 0.00 0.00 0.00 0.00 0.00 0.00 0.00 0.00 0.00 0.00 0.00 0.00 0.00 0.00 0.00 0.00 0.00 0.00 0.00 0.00 0.00 0.00
0.00 0.00 0.00 0.01 0.00 0.00 0.00 0.00 0.00 0.00 0.00 0.00 0.00 0.00 0.00 0.00 0.00 0.00 0.00 0.00 0.00 0.00 0.00 0.00 0.00 0.00 0.00 0.00 0.00 0.00 0.00 0.00 0.00 0.00 0.00 0.00 0.00 0.00 0.00 0.00 0.00 0.00 0.00
0.00 0.00 0.00 0.00 0.00 0.00 0.00 0.00 0.00 0.00 0.00 0.00 0.00 0.00 0.00 0.00 0.00 0.00 0.00 0.00 0.00 0.00 0.00 0.00 0.00 0.00 0.00 0.00 0.00 0.00 0.00 0.00 0.00 0.00 0.00 0.00 0.00 0.00 0.00 0.00 0.00 0.00 0.00
0.00 0.00 0.00 0.00 0.00 0.00 0.00 0.00 0.00 0.00 0.00 0.00 0.00 0.00 0.00 0.00 0.00 0.00 0.00 0.00 0.00 0.00 0.00 0.00 0.00 0.00 0.00 0.00 0.00 0.00 0.00 0.00 0.00 0.00 0.00 0.00 0.00 0.00 0.00 0.00 0.00 0.00 0.00
0.00 0.00 0.00 0.00 0.00 0.00 0.00 0.00 0.00 0.00 0.00 0.00 0.00 0.00 0.00 0.00 0.00 0.00 0.00 0.00 0.00 0.00 0.00 0.00 0.00 0.00 0.00 0.00 0.00 0.00 0.00 0.00 0.00 0.00 0.00 0.00 0.00 0.00 0.00 0.00 0.00 0.00 0.00
0.01 0.03 0.03 0.02 0.00 0.00 0.00 0.00 0.00 0.00 0.00 0.00 0.00 0.00 0.00 0.00 0.00 0.00 0.00 0.00 0.00 0.00 0.00 0.00 0.00 0.00 0.00 0.00 0.00 0.00 0.00 0.00 0.00 0.00 0.00 0.00 0.00 0.00 0.00 0.00 0.00 0.00 0.00
0.00 0.02 0.00 0.00 0.00 0.00 0.00 0.00 0.00 0.00 0.00 0.00 0.00 0.00 0.00 0.00 0.00 0.00 0.00 0.00 0.00 0.00 0.00 0.00 0.00 0.00 0.00 0.00 0.00 0.00 0.00 0.00 0.00 0.00 0.00 0.00 0.00 0.00 0.00 0.00 0.00 0.00 0.00
0.05 0.01 0.00 0.00 0.00 0.00 0.00 0.00 0.00 0.00 0.02 0.00 0.00 0.00 0.00 0.00 0.00 0.00 0.00 0.00 0.00 0.00 0.01 0.06 0.01 0.02 0.00 0.00 0.00 0.00 0.00 0.00 0.00 0.00 0.00 0.00 0.00 0.00 0.00 0.00 0.00 0.00 0.00
0.14 0.05 0.00 0.00 0.00 0.00 0.01 0.01 0.00 0.00 0.01 0.00 0.00 0.00 0.00 0.00 0.00 0.00 0.00 0.00 0.00 0.00 0.00 0.01 0.00 0.00 0.00 0.00 0.00 0.00 0.00 0.00 0.00 0.00 0.00 0.00 0.00 0.00 0.00 0.00 0.00 0.00 0.00
0.08 0.05 0.00 0.00 0.00 0.00 0.00 0.00 0.00 0.01 0.00 0.00 0.00 0.00 0.00 0.00 0.00 0.00 0.00 0.00 0.00 0.00 0.00 0.00 0.00 0.00 0.00 0.00 0.00 0.00 0.00 0.00 0.00 0.00 0.00 0.00 0.00 0.00 0.00 0.00 0.00 0.00 0.00
0.01 0.08 0.08 0.12 0.01 0.00 0.01 0.05 0.00 0.00 0.00 0.00 0.00 0.00 0.00 0.00 0.00 0.00 0.00 0.00 0.00 0.00 0.00 0.00 0.00 0.00 0.00 0.00 0.00 0.00 0.00 0.00 0.00 0.00 0.00 0.00 0.00 0.00 0.00 0.00 0.00 0.00 0.00
0.01 0.00 0.02 0.08 0.00 0.00 0.03 0.02 0.00 0.00 0.00 0.00 0.00 0.00 0.00 0.00 0.00 0.00 0.00 0.00 0.00 0.00 0.00 0.00 0.00 0.00 0.00 0.00 0.00 0.00 0.00 0.00 0.00 0.00 0.00 0.00 0.00 0.00 0.00 0.00 0.00 0.00 0.00
0.01 0.00 0.00 0.00 0.00 0.01 0.02 0.00 0.00 0.00 0.00 0.00 0.00 0.00 0.00 0.00 0.00 0.00 0.00 0.00 0.00 0.00 0.00 0.00 0.00 0.00 0.00 0.00 0.00 0.00 0.00 0.00 0.00 0.00 0.00 0.00 0.00 0.00 0.00 0.00 0.00 0.00 0.00
0.03 0.02 0.04 0.05 0.03 0.02 0.16 0.15 0.04 0.00 0.01 0.01 0.00 0.00 0.01 0.02 0.01 0.00 0.00 0.02 0.02 0.02 0.00 0.00 0.00 0.00 0.00 0.00 0.00 0.00 0.00 0.00 0.00 0.00 0.00 0.00 0.00 0.00 0.00 0.00 0.00 0.00 0.00
0.03 0.02 0.07 0.12 0.17 0.12 0.08 0.09 0.05 0.04 0.04 0.03 0.02 0.02 0.02 0.05 0.01 0.00 0.00 0.00 0.01 0.03 0.01 0.00 0.00 0.00 0.01 0.01 0.00 0.00 0.00 0.00 0.00 0.00 0.00 0.00 0.00 0.00 0.00 0.00 0.00 0.00 0.00
0.04 0.02 0.03 0.05 0.13 0.09 0.05 0.02 0.00 0.00 0.05 0.07 0.09 0.08 0.01 0.03 0.02 0.00 0.02 0.05 0.01 0.02 0.01 0.03 0.01 0.00 0.02 0.02 0.02 0.01 0.02 0.01 0.00 0.00 0.00 0.00 0.00 0.00 0.00 0.00 0.00 0.00 0.00
0.00 0.00 0.01 0.00 0.00 0.00 0.00 0.00 0.00 0.00 0.03 0.11 0.15 0.11 0.07 0.11 0.10 0.05 0.03 0.02 0.01 0.01 0.04 0.04 0.03 0.02 0.02 0.04 0.03 0.04 0.02 0.01 0.00 0.00 0.00 0.00 0.00 0.00 0.00 0.00 0.00 0.00 0.00
0.00 0.00 0.01 0.00 0.00 0.00 0.00 0.00 0.00 0.00 0.05 0.08 0.14 0.15 0.08 0.06 0.04 0.02 0.01 0.00 0.01 0.03 0.06 0.08 0.02 0.01 0.00 0.00 0.03 0.01 0.00 0.00 0.00 0.00 0.00 0.00 0.00 0.00 0.00 0.00 0.00 0.00 0.00
0.00 0.00 0.00 0.00 0.00 0.00 0.00 0.00 0.00 0.00 0.00 0.02 0.03 0.01 0.00 0.00 0.00 0.00 0.00 0.00 0.00 0.01 0.01 0.01 0.01 0.00 0.00 0.01 0.06 0.06 0.08 0.06 0.06 0.01 0.00 0.01 0.00 0.00 0.00 0.00 0.00 0.00 0.00
MSLP
1018.97 1018.84 1018.71 1018.67 1018.67 1018.82 1018.81 1018.59 1018.86 1018.78 1018.68 1018.47 1018.48 1018.47 1018.73 1018.75 1018.55 1018.81 1020.03 1020.97 1021.13 1021.19 1021.17 1021.03 1020.96 1020.87 1020.85 1020.77 1020.65 1020.49 1020.33 1020.20 1020.08 1020.01 1019.87 1019.69 1019.57 1019.47 1019.35 1019.28 1019.33 1019.34 1019.41
1019.39 1019.25 1019.11 1018.66 1018.67 1018.92 1019.02 1018.77 1018.90 1018.25 1018.18 1018.44 1018.84 1018.75 1018.59 1018.94 1019.00 1018.72 1019.48 1020.55 1020.96 1021.08 1021.08 1021.00 1020.94 1020.86 1020.83 1020.73 1020.62 1020.47 1020.29 1020.11 1019.97 1019.87 1019.69 1019.52 1019.33 1019.13 1018.99 1018.91 1018.91 1018.99 1019.05
1019.49 1019.01 1019.09 1018.99 1019.09 1019.41 1019.27 1018.91 1018.76 1018.43 1018.19 1018.49 1018.91 1018.73 1018.91 1018.77 1019.21 1019.12 1018.65 1019.52 1020.57 1020.87 1020.87 1020.93 1020.85 1020.81 1020.71 1020.59 1020.48 1020.29 1020.15 1019.99 1019.78 1019.63 1019.49 1019.30 1019.06 1018.83 1018.64 1018.51 1018.44 1018.52 1018.59
1019.69 1019.16 1019.17 1019.24 1019.21 1018.92 1018.53 1018.44 1018.21 1018.13 1018.10 1018.17 1018.33 1018.17 1018.60 1018.73 1019.21 1019.18 1019.00 1018.71 1018.94 1019.59 1020.57 1020.70 1020.65 1020.57 1020.48 1020.37 1020.23 1020.07 1019.98 1019.90 1019.70 1019.50 1019.27 1019.13 1018.95 1018.73 1018.50 1018.31 1018.11 1018.11 1018.16
1019.71 1019.84 1019.48 1019.63 1019.73 1018.96 1018.49 1018.39 1018.42 1018.43 1018.36 1017.95 1018.02 1018.30 1018.43 1018.51 1018.51 1018.61 1019.15 1018.84 1019.25 1018.67 1019.07 1020.17 1020.20 1020.19 1020.16 1020.09 1019.97 1019.93 1019.87 1019.76 1019.57 1019.39 1019.20 1019.01 1018.85 1018.66 1018.46 1018.25 1018.01 1017.89 1017.87
1019.91 1019.83 1019.49 1019.69 1019.80 1018.91 1018.87 1018.88 1019.22 1018.83 1018.57 1018.36 1017.48 1018.07 1018.13 1018.32 1018.33 1018.40 1018.68 1018.37 1019.08 1018.99 1018.71 1019.09 1019.24 1019.36 1019.64 1019.74 1019.77 1019.76 1019.70 1019.63 1019.42 1019.27 1019.14 1018.97 1018.77 1018.60 1018.45 1018.24 1017.98 1017.75 1017.70
1020.05 1019.80 1019.65 1019.93 1019.33 1019.31 1019.61 1019.56 1019.54 1019.31 1018.71 1018.73 1018.25 1018.04 1018.41 1018.37 1018.20 1018.09 1017.84 1017.72 1018.55 1018.10 1018.57 1018.88 1018.33 1018.53 1019.17 1019.50 1019.50 1019.52 1019.46 1019.46 1019.35 1019.20 1019.03 1018.87 1018.63 1018.51 1018.39 1018.19 1017.96 1017.71 1017.67
1020.15 1019.83 1019.63 1019.73 1019.60 1019.74 1019.94 1019.89 1019.71 1019.10 1018.71 1018.99 1018.12 1017.61 1017.77 1017.80 1017.57 1017.63 1017.98 1017.95 1018.01 1017.88 1018.30 1018.46 1018.63 1018.92 1018.54 1018.34 1018.85 1019.34 1019.33 1019.29 1019.14 1019.06 1018.89 1018.77 1018.63 1018.44 1018.29 1018.09 1017.93 1017.79 1017.67
1020.02 1019.89 1020.08 1020.32 1019.79 1019.85 1019.85 1020.02 1019.66 1019.49 1018.87 1019.21 1019.22 1018.68 1017.87 1017.27 1017.60 1017.89 1018.25 1017.99 1018.41 1017.92 1017.99 1018.39 1018.23 1018.51 1018.56 1018.18 1018.79 1019.18 1019.18 1019.23 1019.07 1018.93 1018.72 1018.59 1018.53 1018.41 1018.21 1018.05 1017.89 1017.72 1017.65
1019.77 1019.98 1020.16 1020.24 1020.25 1019.72 1020.04 1020.06 1019.67 1019.67 1019.54 1018.84 1018.79 1018.83 1019.16 1018.63 1017.86 1017.65 1017.71 1018.07 1018.13 1017.91 1018.07 1017.52 1017.43 1017.94 1018.06 1017.60 1018.29 1018.90 1019.07 1019.05 1018.96 1018.89 1018.68 1018.50 1018.39 1018.33 1018.14 1017.96 1017.85 1017.67 1017.60
1019.61 1019.72 1020.04 1020.31 1020.35 1020.01 1019.89 1020.05 1020.15 1020.17 1019.52 1019.38 1018.57 1018.57 1018.86 1018.36 1018.19 1017.64 1017.27 1017.65 1017.57 1017.48 1017.45 1017.38 1017.10 1017.09 1017.47 1017.63 1017.99 1018.73 1018.87 1018.85 1018.76 1018.77 1018.61 1018.40 1018.27 1018.12 1017.99 1017.85 1017.79 1017.62 1017.52
1019.25 1019.58 1019.79 1020.19 1020.31 1020.01 1020.27 1020.29 1020.25 1020.46 1020.49 1020.02 1019.43 1019.03 1018.50 1018.29 1017.65 1017.60 1017.42 1017.58 1017.02 1017.03 1016.61 1016.55 1016.88 1016.98 1016.96 1016.89 1017.71 1018.31 1018.55 1018.65 1018.72 1018.62 1018.48 1018.28 1018.08 1017.96 1017.75 1017.62 1017.63 1017.54 1017.48
1019.58 1019.23 1019.65 1020.20 1020.13 1020.47 1020.35 1020.39 1020.68 1020.70 1020.61 1020.38 1020.28 1019.50 1018.73 1017.81 1017.69 1017.95 1017.59 1017.12 1016.64 1016.22 1017.00 1017.31 1017.24 1017.38 1017.40 1017.26 1017.73 1017.98 1018.37 1018.58 1018.45 1018.51 1018.34 1018.21 1018.03 1017.86 1017.65 1017.49 1017.40 1017.42 1017.44
1018.03 1018.60 1019.07 1019.76 1020.06 1020.15 1020.47 1020.53 1020.48 1020.52 1020.35 1020.59 1020.56 1020.35 1019.68 1018.91 1018.84 1018.58 1017.97 1017.10 1016.82 1016.93 1017.35 1018.29 1017.08 1017.33 1016.68 1017.60 1017.99 1017.72 1017.97 1018.47 1018.05 1018.26 1018.10 1017.93 1017.80 1017.69 1017.47 1017.33 1017.27 1017.26 1017.27
1020.04 1019.53 1018.46 1019.22 1019.67 1019.93 1020.28 1020.39 1020.53 1020.35 1020.67 1020.67 1020.53 1020.60 1020.38 1019.45 1019.07 1018.81 1018.42 1017.65 1017.47 1015.96 1016.25 1020.63 1019.54 1019.63 1018.11 1017.60 1018.25 1017.45 1017.62 1017.80 1017.69 1017.77 1017.99 1017.75 1017.48 1017.33 1017.22 1017.14 1017.01 1017.01 1016.95
1018.99 1019.44 1018.68 1019.01 1019.63 1019.93 1020.32 1020.44 1020.27 1020.09 1020.49 1020.69 1020.28 1020.29 1020.43 1019.99 1019.42 1019.17 1018.57 1017.85 1018.17 1018.03 1017.94 1019.08 1018.71 1018.34 1016.92 1017.82 1017.97 1017.62 1017.72 1017.65 1016.86 1017.06 1017.61 1017.35 1017.13 1017.04 1016.93 1016.90 1016.82 1016.75 1016.68
1018.59 1018.75 1018.92 1019.41 1019.67 1019.94 1020.05 1020.45 1020.57 1020.56 1020.44 1020.53 1020.55 1020.45 1020.41 1020.57 1020.21 1019.43 1018.82 1017.97 1017.75 1018.37 1018.56 1018.47 1018.66 1018.33 1017.95 1017.73 1017.45 1017.68 1017.73 1017.14 1016.24 1016.83 1017.03 1016.78 1016.60 1016.69 1016.68 1016.59 1016.55 1016.51 1016.45
1019.03 1019.24 1019.49 1019.77 1019.85 1020.07 1020.04 1020.22 1020.51 1020.19 1020.30 1020.39 1020.32 1020.38 1020.43 1020.09 1020.13 1020.13 1019.70 1019.15 1018.39 1018.16 1018.21 1017.95 1017.85 1017.41 1017.13 1016.93 1017.01 1017.40 1017.14 1016.61 1016.14 1016.11 1016.29 1016.08 1016.15 1016.17 1016.15 1016.04 1015.98 1016.03 1015.95
1019.60 1019.33 1019.39 1019.79 1019.87 1019.96 1019.94 1020.02 1020.27 1020.25 1020.01 1020.05 1020.05 1020.01 1019.98 1020.11 1020.09 1020.03 1019.96 1019.65 1018.97 1018.64 1018.35 1018.05 1017.71 1017.61 1017.39 1017.14 1016.89 1016.80 1016.57 1016.03 1015.71 1015.33 1015.53 1015.52 1015.73 1015.65 1015.39 1015.29 1015.12 1015.18 1015.22
1019.33 1019.35 1019.31 1019.40 1019.59 1019.79 1020.09 1019.97 1020.12 1020.04 1019.90 1019.76 1019.83 1019.87 1019.94 1019.99 1020.07 1020.05 1020.03 1019.97 1019.54 1019.45 1018.83 1018.63 1018.07 1017.47 1016.93 1016.69 1016.54 1016.29 1015.95 1015.85 1015.53 1015.10 1014.89 1014.53 1014.78 1014.59 1014.70 1014.43 1014.33 1014.35 1014.75
1019.26 1019.20 1019.25 1019.30 1019.40 1019.67 1020.84 1020.82 1019.98 1019.75 1019.75 1019.80 1019.72 1019.72 1019.67 1019.77 1019.81 1020.16 1020.21 1019.91 1020.13 1019.76 1019.33 1018.60 1017.98 1017.46 1016.94 1017.27 1016.95 1016.69 1016.50 1015.92 1015.69 1015.35 1014.79 1014.53 1014.02 1013.79 1013.41 1013.49 1013.35 1013.93 1014.09
1019.76 1019.42 1019.57 1019.71 1020.06 1020.93 1021.74 1021.77 1021.07 1020.42 1019.68 1019.53 1019.56 1019.62 1019.66 1019.85 1020.08 1020.09 1020.00 1020.13 1020.61 1020.60 1020.19 1019.61 1018.91 1018.35 1018.13 1017.94 1017.67 1017.33 1017.19 1016.72 1016.38 1015.70 1015.27 1014.80 1014.41 1013.60 1013.18 1012.61 1012.85 1013.12 1013.40
1019.99 1019.85 1020.15 1020.62 1021.29 1021.91 1022.25 1021.79 1021.44 1020.98 1020.27 1019.91 1019.86 1019.95 1019.90 1020.02 1020.09 1019.99 1019.97 1020.28 1020.27 1020.11 1020.30 1019.77 1019.33 1018.89 1018.46 1018.29 1018.28 1017.95 1017.55 1017.27 1016.67 1015.99 1015.57 1014.45 1013.68 1012.91 1012.27 1012.04 1012.71 1012.65 1012.55
1020.38 1020.38 1020.25 1020.83 1021.61 1022.62 1022.66 1022.10 1021.55 1021.02 1020.13 1019.85 1020.08 1020.25 1020.38 1020.87 1021.67 1021.42 1020.98 1020.20 1019.42 1018.86 1018.74 1018.93 1018.82 1018.57 1018.22 1018.05 1018.13 1017.86 1017.66 1017.26 1016.40 1015.27 1014.45 1013.76 1012.90 1012.16 1011.66 1011.42 1011.77 1011.91 1011.80
1020.63 1020.38 1020.79 1021.21 1022.03 1023.01 1023.12 1022.53 1021.71 1020.38 1020.21 1020.37 1020.81 1021.18 1021.11 1021.64 1022.56 1022.15 1021.50 1020.36 1019.65 1018.98 1018.09 1018.44 1018.53 1018.52 1018.37 1018.13 1018.09 1017.96 1017.11 1016.40 1015.39 1014.54 1013.81 1013.37 1013.06 1012.61 1012.16 1011.61 1011.06 1011.06 1011.44
1020.81 1020.88 1021.39 1021.87 1022.55 1022.98 1023.75 1023.27 1022.41 1021.71 1020.67 1020.99 1020.84 1021.54 1022.09 1022.40 1022.69 1022.63 1022.29 1021.15 1020.25 1019.29 1018.87 1018.47 1018.26 1017.74 1017.40 1016.92 1017.05 1017.23 1016.56 1016.53 1016.15 1015.17 1014.31 1014.17 1013.46 1013.11 1012.31 1012.15 1011.43 1011.05 1010.67
Thickness
5756 5757 5760 5761 5760 5759 5760 5761 5760 5762 5766 5770 5772 5774 5773 5775 5779 5779 5771 5767 5767 5767 5768 5769 5769 5769 5768 5767 5766 5766 5766 5766 5765 5764 5762 5761 5760 5759 5758 5756 5754 5751 5747
5758 5758 5762 5765 5765 5762 5761 5764 5763 5770 5774 5773 5773 5775 5778 5777 5780 5784 5779 5773 5772 5772 5772 5773 5773 5772 5771 5770 5770 5770 5770 5770 5769 5768 5767 5766 5765 5765 5764 5762 5759 5755 5751
5760 5764 5765 5767 5766 5763 5764 5767 5769 5774 5777 5776 5775 5779 5779 5783 5782 5784 5789 5783 5778 5777 5777 5776 5776 5776 5776 5775 5774 5774 5774 5774 5774 5772 5771 5770 5771 5770 5769 5767 5764 5760 5756
5763 5767 5767 5768 5767 5771 5774 5776 5779 5780 5782 5783 5784 5787 5785 5786 5784 5786 5788 5792 5792 5788 5782 5781 5781 5780 5780 5780 5779 5779 5778 5777 5777 5776 5776 5774 5773 5773 5772 5771 5769 5765 5762
5766 5767 5769 5768 5768 5775 5779 5782 5782 5783 5783 5788 5790 5790 5790 5792 5793 5793 5790 5794 5792 5797 5794 5788 5787 5786 5786 5785 5784 5783 5781 5780 5780 5780 5779 5778 5777 5776 5775 5773 5772 5769 5766
5767 5769 5770 5771 5773 5779 5781 5781 5779 5785 5787 5790 5798 5794 5796 5796 5797 5798 5797 5800 5795 5796 5799 5796 5795 5794 5792 5790 5789 5787 5785 5784 5783 5782 5781 5781 5780 5779 5777 5775 5773 5772 5769
5768 5771 5773 5771 5777 5780 5778 5780 5780 5781 5787 5791 5791 5794 5794 5798 5801 5803 5806 5807 5802 5805 5802 5799 5804 5801 5796 5794 5793 5791 5790 5787 5786 5785 5784 5783 5782 5780 5778 5777 5775 5773 5770
5769 5773 5775 5776 5778 5779 5778 5780 5781 5785 5789 5790 5790 5794 5783 5794 5805 5809 5808 5808 5808 5809 5805 5804 5802 5799 5801 5803 5798 5794 5793 5791 5790 5788 5787 5786 5784 5782 5779 5778 5776 5773 5771
5772 5774 5773 5774 5777 5779 5780 5780 5784 5784 5785 5788 5790 5786 5784 5784 5795 5805 5803 5809 5805 5811 5809 5806 5807 5804 5802 5805 5800 5797 5795 5793 5793 5791 5790 5788 5786 5783 5781 5778 5776 5774 5771
5775 5774 5773 5774 5775 5780 5780 5780 5785 5786 5785 5787 5794 5796 5792 5794 5787 5785 5805 5805 5808 5811 5810 5813 5813 5809 5807 5810 5805 5800 5797 5796 5795 5793 5792 5790 5788 5785 5782 5780 5777 5775 5772
5777 5777 5775 5774 5774 5778 5781 5782 5781 5782 5789 5788 5795 5795 5793 5798 5800 5796 5789 5797 5809 5814 5815 5814 5816 5815 5811 5809 5807 5802 5800 5798 5797 5794 5794 5793 5790 5787 5784 5782 5778 5775 5773
5781 5778 5777 5775 5775 5779 5779 5779 5781 5781 5781 5786 5792 5795 5794 5788 5795 5798 5796 5796 5802 5810 5819 5822 5820 5818 5817 5817 5810 5804 5801 5800 5797 5796 5795 5794 5793 5789 5787 5784 5780 5777 5774
5778 5782 5779 5775 5776 5774 5776 5777 5778 5779 5781 5782 5784 5791 5800 5807 5809 5803 5801 5800 5802 5815 5813 5819 5818 5815 5814 5815 5812 5808 5803 5800 5800 5796 5796 5794 5793 5790 5789 5786 5783 5779 5776
5792 5787 5783 5778 5777 5776 5775 5775 5776 5778 5782 5781 5782 5784 5790 5798 5799 5799 5799 5801 5794 5803 5808 5801 5822 5815 5816 5808 5810 5810 5805 5801 5802 5798 5797 5796 5794 5791 5790 5789 5786 5783 5779
5768 5770 5787 5782 5778 5777 5775 5775 5775 5779 5777 5779 5782 5781 5783 5792 5796 5798 5800 5804 5797 5780 5777 5773 5791 5797 5803 5807 5807 5811 5806 5803 5803 5801 5797 5796 5795 5794 5792 5791 5790 5787 5785
5772 5768 5785 5783 5777 5775 5773 5773 5777 5780 5778 5778 5783 5783 5782 5786 5791 5793 5797 5802 5799 5795 5789 5788 5799 5806 5817 5804 5807 5809 5804 5803 5807 5806 5799 5799 5798 5796 5795 5793 5792 5790 5789
5784 5783 5783 5778 5776 5775 5775 5773 5773 5774 5777 5777 5778 5779 5779 5779 5782 5789 5794 5800 5799 5794 5785 5794 5799 5804 5806 5807 5808 5805 5801 5804 5809 5806 5802 5802 5801 5798 5796 5795 5794 5793 5792
5775 5774 5774 5773 5774 5773 5774 5773 5772 5776 5775 5775 5776 5776 5776 5781 5780 5781 5784 5787 5792 5795 5790 5787 5797 5803 5806 5810 5808 5804 5803 5806 5807 5808 5805 5806 5803 5802 5800 5799 5799 5797 5797
5766 5770 5771 5770 5771 5772 5774 5774 5772 5773 5776 5776 5777 5777 5778 5778 5777 5779 5780 5781 5787 5791 5792 5790 5791 5799 5801 5804 5805 5806 5806 5809 5809 5811 5810 5810 5806 5804 5806 5804 5806 5804 5802
5763 5765 5769 5772 5772 5773 5771 5773 5772 5773 5774 5776 5776 5777 5778 5777 5776 5777 5777 5778 5782 5780 5785 5784 5787 5793 5799 5804 5804 5801 5802 5808 5807 5810 5810 5813 5811 5811 5809 5810 5811 5811 5805
5758 5761 5764 5768 5771 5771 5765 5763 5772 5772 5771 5771 5773 5775 5777 5778 5776 5776 5776 5778 5775 5775 5778 5782 5784 5788 5791 5788 5789 5796 5794 5801 5803 5806 5809 5810 5813 5814 5816 5817 5817 5812 5809
5748 5752 5755 5758 5760 5758 5750 5750 5757 5763 5769 5768 5768 5770 5773 5771 5771 5772 5771 5770 5767 5764 5765 5769 5773 5774 5776 5779 5784 5785 5784 5784 5780 5797 5800 5801 5808 5814 5817 5820 5817 5816 5813
5740 5743 5744 5744 5741 5742 5739 5744 5747 5753 5758 5761 5762 5763 5765 5766 5767 5769 5768 5766 5766 5766 5765 5766 5765 5767 5770 5774 5775 5775 5778 5778 5781 5790 5793 5796 5811 5814 5821 5822 5818 5817 5817
5732 5733 5737 5734 5731 5728 5729 5735 5739 5745 5753 5755 5756 5755 5754 5753 5747 5751 5756 5762 5767 5770 5767 5767 5768 5769 5771 5773 5771 5774 5774 5777 5785 5793 5799 5791 5810 5813 5823 5823 5821 5820 5819
5728 5731 5730 5725 5720 5715 5717 5723 5732 5744 5745 5743 5741 5738 5743 5741 5732 5736 5745 5752 5756 5759 5766 5765 5763 5765 5766 5768 5767 5768 5770 5774 5779 5787 5798 5796 5799 5803 5810 5815 5820 5821 5819
5719 5718 5716 5715 5710 5710 5705 5710 5716 5724 5732 5729 5733 5728 5725 5725 5723 5725 5730 5738 5742 5749 5751 5754 5757 5760 5764 5767 5769 5767 5772 5765 5764 5772 5785 5779 5788 5791 5792 5803 5811 5812 5815